Du Bois, PA

6:42 AM EDT on April 25, 2017 (GMT -0400)
Du Bois-Jefferson County

Weather History for KDUJ - December, 2011

Change the Weather History Date:

Tuesday, December 6, 2011

  Actual Average Record
Temperature  
Mean Temperature 46 °F 31 °F  
Max Temperature 52 °F 38 °F 63 °F (2001)
Min Temperature 40 °F 24 °F 5 °F (2007)
Degree Days  
Heating Degree Days 19 34  
Month to date heating degree days 159 198  
Since 1 July heating degree days 1080 1715  
Cooling Degree Days 0 0  
Month to date cooling degree days 0 0  
Year to date cooling degree days 0 362  
Moisture  
Dew Point 45 °F    
Average Humidity 97    
Maximum Humidity 100    
Minimum Humidity 93    
Precipitation  
Precipitation 0.08 in 0.11 in 1.10 in (1971)
Month to date precipitation 0.12 0.64  
Sea Level Pressure  
Sea Level Pressure 29.98 in    
Wind  
Wind Speed 4 mph (WNW)    
Max Wind Speed 9 mph    
Max Gust Speed 16 mph    
Visibility 3 miles    
Events Fog    
T = Trace of Precipitation, MM = Missing Value Source: NWS Daily Summary

Daily Weather History Graph

Daily Weather History Graph

Search for Another Location

Airport or City:

Trip Planner

Search our weather history database for the weather conditions in past years. The results will help you decide how hot, cold, wet, or windy it might be!

Date:

Astronomy

Dec. 06, 2011 Rise Set
Actual Time 7:26 AM EST 4:46 PM EST
Civil Twilight 6:55 AM EST 5:17 PM EST
Nautical Twilight 6:20 AM EST 5:52 PM EST
Astronomical Twilight 5:47 AM EST 6:25 PM EST
Moon 2:14 PM EST (12/6) 3:41 AM EST (12/6)
Length of Visible Light 10h 22m
Length of Day
9h 20m
Waxing Gibbous, 86% of the Moon is Illuminated
Dec 6
Waxing Gibbous
Dec 10
Full
Dec 17
Last Quarter
Dec 24
New
Jan 1
First Quarter

Hourly Weather History & Observations

Time (EST) Temp. Windchill Dew Point Humidity Pressure Visibility Wind Dir Wind Speed Gust Speed Precip Events Conditions
12:01 AM 48.2 °F - 46.4 °F 93% 30.01 in 4.0 mi SSE 3.5 mph - N/A   Overcast
12:35 AM 48.2 °F - 48.2 °F 100% 30.00 in 2.5 mi SSE 5.8 mph - 0.02 in   Overcast
12:47 AM 48.2 °F - 48.2 °F 100% 29.99 in 3.0 mi SSE 5.8 mph - 0.02 in   Overcast
12:56 AM 48.9 °F - 48.0 °F 97% 29.99 in 2.5 mi SSE 4.6 mph - 0.02 in   Overcast
1:41 AM 48.2 °F - 48.2 °F 100% 29.98 in 4.0 mi SSE 4.6 mph - 0.01 in   Overcast
1:56 AM 50.0 °F - 48.9 °F 96% 29.99 in 4.0 mi SSE 4.6 mph - 0.01 in   Overcast
2:19 AM 50.0 °F - 48.2 °F 94% 29.98 in 6.0 mi SSE 4.6 mph - N/A   Overcast
2:39 AM 50.0 °F - 48.2 °F 94% 29.98 in 7.0 mi SE 5.8 mph - N/A   Overcast
2:56 AM 50.0 °F - 50.0 °F 100% 29.99 in 7.0 mi South 4.6 mph - N/A   Overcast
3:41 AM 51.8 °F - 50.0 °F 94% 29.98 in 4.0 mi SW 6.9 mph - 0.01 in   Overcast
3:56 AM 51.1 °F - 50.0 °F 96% 29.98 in 10.0 mi SSW 4.6 mph - 0.01 in   Overcast
4:37 AM 51.8 °F - 51.8 °F 100% 29.97 in 10.0 mi SW 8.1 mph - 0.01 in   Overcast
4:56 AM 52.0 °F - 51.1 °F 97% 29.98 in 10.0 mi SW 8.1 mph - 0.01 in   Overcast
5:45 AM 51.8 °F - 51.8 °F 100% 29.98 in 2.5 mi WSW 6.9 mph - N/A   Overcast
5:56 AM 51.1 °F - 50.0 °F 96% 29.99 in 2.5 mi WSW 8.1 mph - N/A   Overcast
6:35 AM 51.8 °F - 50.0 °F 94% 29.99 in 4.0 mi WSW 5.8 mph - 0.01 in   Overcast
6:56 AM 50.0 °F - 50.0 °F 100% 30.01 in 4.0 mi WSW 8.1 mph - 0.01 in   Overcast
7:17 AM 50.0 °F - 50.0 °F 100% 29.99 in 2.5 mi WSW 4.6 mph - N/A   Overcast
7:29 AM 50.0 °F - 48.2 °F 94% 30.00 in 4.0 mi WSW 5.8 mph - N/A   Overcast
7:56 AM 48.9 °F - 48.9 °F 100% 30.01 in 4.0 mi WSW 4.6 mph - N/A   Overcast
8:48 AM 48.2 °F - 48.2 °F 100% 30.00 in 1.8 mi West 5.8 mph - N/A   Overcast
8:56 AM 48.0 °F - 48.0 °F 100% 30.02 in 0.5 mi West 5.8 mph - N/A Fog Fog
9:04 AM 48.2 °F - 48.2 °F 100% 30.00 in 0.2 mi WNW 3.5 mph - N/A Fog Fog
9:56 AM 46.0 °F - 46.0 °F 100% 30.03 in 0.2 mi Calm Calm - N/A Fog Fog
10:56 AM 45.0 °F 42.6 °F 45.0 °F 100% 30.03 in 0.2 mi WNW 4.6 mph - N/A Fog Fog
11:06 AM 44.6 °F 42.2 °F 44.6 °F 100% 30.01 in 0.5 mi West 4.6 mph - N/A Fog Fog
11:40 AM 44.6 °F - 44.6 °F 100% 29.98 in 2.0 mi Calm Calm - N/A   Overcast
11:56 AM 46.0 °F - 46.0 °F 100% 29.99 in 3.0 mi Calm Calm - N/A   Overcast
12:40 PM 46.4 °F 42.4 °F 44.6 °F 93% 29.96 in 1.8 mi WNW 8.1 mph - N/A   Overcast
12:49 PM 44.6 °F 40.7 °F 44.6 °F 100% 29.96 in 0.5 mi WNW 6.9 mph - N/A Fog Fog
12:56 PM 45.0 °F 41.8 °F 45.0 °F 100% 29.98 in 2.0 mi NW 5.8 mph - N/A   Overcast
1:04 PM 44.6 °F 41.4 °F 44.6 °F 100% 29.97 in 9.0 mi WNW 5.8 mph - N/A   Overcast
1:10 PM 44.6 °F 40.2 °F 44.6 °F 100% 29.96 in 1.2 mi WNW 8.1 mph - N/A   Overcast
1:15 PM 44.6 °F 40.7 °F 44.6 °F 100% 29.96 in 0.2 mi WNW 6.9 mph - N/A Fog Fog
1:56 PM 42.8 °F 40.1 °F 42.8 °F 100% 29.95 in 0.2 mi NW 4.6 mph - N/A Fog Fog
2:11 PM 42.8 °F 40.1 °F 42.8 °F 100% 29.95 in 1.0 mi NW 4.6 mph - N/A   Mist
2:24 PM 42.8 °F 40.1 °F 42.8 °F 100% 29.95 in 3.0 mi WNW 4.6 mph - N/A   Overcast
2:36 PM 42.8 °F 39.3 °F 42.8 °F 100% 29.95 in 2.0 mi NW 5.8 mph - N/A   Overcast
2:43 PM 42.8 °F 40.1 °F 42.8 °F 100% 29.95 in 1.0 mi NW 4.6 mph - N/A   Overcast
2:56 PM 43.0 °F 40.3 °F 43.0 °F 100% 29.96 in 0.8 mi NW 4.6 mph - N/A   Mist
3:08 PM 42.8 °F 40.1 °F 42.8 °F 100% 29.95 in 0.2 mi NNW 4.6 mph - N/A Fog Fog
3:15 PM 42.8 °F 40.1 °F 42.8 °F 100% 29.95 in 0.8 mi NNW 4.6 mph - N/A   Mist
3:31 PM 42.8 °F 40.1 °F 42.8 °F 100% 29.95 in 1.0 mi NW 4.6 mph - N/A   Mist
3:47 PM 42.8 °F 40.1 °F 42.8 °F 100% 29.95 in 3.0 mi NW 4.6 mph - N/A   Overcast
3:56 PM 43.0 °F 40.3 °F 43.0 °F 100% 29.96 in 3.0 mi NW 4.6 mph - N/A   Overcast
4:03 PM 42.8 °F 41.1 °F 42.8 °F 100% 29.95 in 1.8 mi NW 3.5 mph - N/A   Overcast
4:33 PM 42.8 °F 40.1 °F 42.8 °F 100% 29.95 in 0.5 mi NNW 4.6 mph - N/A Fog Fog
4:47 PM 42.8 °F 41.1 °F 42.8 °F 100% 29.96 in 1.2 mi NW 3.5 mph - N/A   Overcast
4:56 PM 43.0 °F 40.3 °F 43.0 °F 100% 29.97 in 0.8 mi NW 4.6 mph - N/A   Mist
5:06 PM 42.8 °F 41.1 °F 42.8 °F 100% 29.96 in 1.0 mi NW 3.5 mph - N/A   Mist
5:30 PM 42.8 °F 40.1 °F 42.8 °F 100% 29.96 in 2.5 mi North 4.6 mph - N/A   Overcast
5:39 PM 42.8 °F 41.1 °F 42.8 °F 100% 29.96 in 5.0 mi NNW 3.5 mph - N/A   Overcast
5:56 PM 42.1 °F 40.2 °F 42.1 °F 100% 29.97 in 4.0 mi NNW 3.5 mph - N/A   Overcast
6:05 PM 42.8 °F 41.1 °F 42.8 °F 100% 29.96 in 1.8 mi NNW 3.5 mph - 0.01 in   Overcast
6:28 PM 42.8 °F 41.1 °F 42.8 °F 100% 29.96 in 0.5 mi North 3.5 mph - 0.01 in Fog Fog
6:56 PM 42.1 °F - 42.1 °F 100% 29.98 in 0.5 mi Calm Calm - 0.01 in Fog Fog
7:40 PM 42.8 °F - 42.8 °F 100% 29.96 in 0.2 mi Calm Calm - N/A Fog Fog
7:56 PM 42.1 °F 40.2 °F 42.1 °F 100% 29.98 in 0.2 mi NW 3.5 mph - N/A Fog Fog
8:56 PM 42.1 °F 38.4 °F 42.1 °F 100% 29.98 in 0.5 mi WNW 5.8 mph - N/A Fog Fog
9:45 PM 41.0 °F 36.4 °F 41.0 °F 100% 29.97 in 1.5 mi WNW 6.9 mph - N/A   Overcast
9:53 PM 41.0 °F 37.1 °F 41.0 °F 100% 29.96 in 2.0 mi NW 5.8 mph - N/A   Overcast
9:56 PM 41.0 °F 37.1 °F 41.0 °F 100% 29.99 in 2.5 mi NW 5.8 mph - N/A   Overcast
10:56 PM 39.9 °F 37.8 °F 39.9 °F 100% 29.94 in 6.0 mi North 3.5 mph - 0.01 in   Overcast
11:56 PM 39.9 °F - 39.0 °F 97% 29.93 in 10.0 mi Calm Calm - N/A   Overcast